COSMOS 2493 (SKRL-756 1)

Last updated on Fri Dec 29 2023 00:03:35 GMT+0000 (Coordinated Universal Time)

1 39490U 13078A 23362.42554979 .00003622 00000+0 34763-3 0 9993 2 39490 82.4167 57.2967 0016577 42.4386 317.8112 14.92734469543301
UTC large
Height (km)
Speed (km/s)
/
Latitude / Longitude
Inclination (degrees)
Orbital Period (minutes)
Azimuth
Elevation
Range (km)
Doppler Factor

Next 0 passes for location: London (51.5072 / 0.1276)

Sorry there are no passes over London.